OPS 4682 DEB, 18964

Orbit data source: Space-Track

OPS 4682 DEB, 18964 is space debris in LEO originally from a launch on Sat, 03 Apr 1965 UTC launched from the Air Force Western Test Range (AFWTR). Debris objects in space refer to the collection of defunct objects orbiting the Earth. Examples of debris include non-operational satellites, rocket bodies, and fragments generated from explosions, collisions, or faulty payload assembly.

Loading next visibility...
Identifier
18964, 1965-027AM
Orbit
LEO
Country
Flag of USUS
Related business
Manufacturer
Unknown
Mission
Spacecraft
Bus & Motor
Unknown
Mass
Unknown
Launch date (UTC)
1965-04-03 (61 years ago)
Launch vehicle
Unknown
Launch site
Air Force Western Test Range (AFWTR)
Object type
Payload
Rocket body
Debris
Shape & HBR
Unknown shape, 0.1 m
Radar Cross Section
Small (<0.1 m²)

Expand to show TLE details & history
Last TLE update: 1 day ago

TLE from 1 day ago
0 OPS 4682 DEB
1 18964U 65027AM  26103.93722332  .00000853  00000-0  28981-2 0  9997
2 18964  90.2465 358.4616 0030927 282.2733  95.4188 12.97763738847138
Epoch: 2026-04-13T22:29Z
TLE epoch observation values (Epoch: 2026-04-13T22:29:36.094Z)
Latitude
18.03529°
Longitude
178.86069°
Altitude
1,275.507 km
Speed
7.218 km/s
True Right ascension
23h 53m 31s
True Declination
17° 56' 28"
Sunlit
Object was in daylight at epoch
Visualization orbit readout
Latitude
Unknown
Longitude
Unknown
Altitude
Unknown
Speed
Unknown
Apparent Right ascension
Unknown
Apparent Declination
Unknown
Sunlit
N/A
Visualization observer readout
Local Sidereal Time
07:22:45
Azimuth
Unknown
Elevation
Unknown
Doppler factor
Unknown
Orbital elements
Apogee altitude
1,291.638 km
Perigee altitude
1,244.344 km
Semi-major axis
7,646.128 km
Eccentricity
0.00309
Inclination
90.2465°
RAAN
358.4616°
Arg. of periapsis
282.2733°
True anomaly
95.77148°
Mean anomaly
95.4188°
Eccentric anomaly
95.59515°
Mean motion
3.24624 °/min
Orbital period
110.9 mins
BSTAR
0.0028981
Loading maneuver chart data...
Computing Atmospheric mass density...
Loading historical data...
Loading historical data...
Loading historical data...
Loading historical data...
Loading historical data...
Loading historical data...
Loading historical data...

Documentation

Showing up to 5 results
|